Frankfurt Rhein-Main (FRA/EDDF)




Flight Aircraft Arriving
CPX1132 B738
EBLG - Liège Airport
Belgium Liege, Belgium
Flight Aircraft Departing
CPX1131 B738
EBLG - Liège Airport
Belgium Liege, Belgium
Airport Information
Location: Frankfurt, DE
Coordinates: 50.0333 / 8.57046
Elevation:
Time Offset:
Local Time:
UTC Time:
Jet A Price: $/lbs

Current Weather
METAR: EDDF 190950Z 09007KT 060V160 CAVOK 19/05 Q1020 NOSIG
TAF: TAF EDDF 190500Z 1906/2012 04007KT CAVOK

Recent Arrivals
Date Flight Type Depart
04/24/2020 CPX1131 B738 Liège Airport (EBLG)
03/26/2020 CPX1131 B738 Liège Airport (EBLG)
01/14/2020 CPX1131 B738 Liège Airport (EBLG)
11/27/2019 CPX1131 B738 Liège Airport (EBLG)
10/28/2019 CPX731 B738 Liège Airport (EBLG)
09/28/2019 CPX731 B738 Liège Airport (EBLG)
09/28/2019 CPX731 B738 Liège Airport (EBLG)
Recent Departures
Date Flight Type Arrive
09/03/2020 CPX1132 B738 Liège Airport (EBLG)
03/26/2020 CPX1132 B738 Liège Airport (EBLG)
01/15/2020 CPX1132 B738 Liège Airport (EBLG)
11/27/2019 CPX1132 B738 Liège Airport (EBLG)
10/29/2019 CPX732 B738 Liège Airport (EBLG)
09/28/2019 CPX732 B738 Liège Airport (EBLG)
09/28/2019 CPX732 B738 Liège Airport (EBLG)